[[{"header":{"parameterUnit":"m.s-1","parameterCategory":1,"la1":30.2991,"la2":30.254,"lo1":-89.0895,"lo2":-89.0444,"dy":0.0017,"dx":0.0017,"nx":28,"ny":28,"refTime":"2024-06-17T09:00:00:Z","depth":0,"parameterNumber":2,"parameterNumberName":"U-component_of_WINDS"},"data":[0,0,0,0,0,0,0,0,0,0,0,0,0,0,0,0,0,0,0,0,0,0,0,0,0,0,0,0,0,0,0,0,0,0,0,0,0,0,0,0,0,0,0,0,0,0,0,0,0,0,0,0,0,0,0,0,0,0,-5.3227,-5.3228,0,-5.3251,-5.3252,-5.3252,-5.3139,-5.3136,-5.3132,-5.3129,-5.3153,-5.3157,-5.316,0,0,0,0,0,0,0,0,0,0,0,0,0,-5.3082,-5.3086,-5.3227,-5.3228,-5.3228,-5.3251,-5.3252,-5.3252,-5.314,-5.3136,-5.3132,-5.3128,-5.3152,-5.3156,-5.3161,0,0,0,0,0,0,0,0,0,0,0,0,0,-5.313,-5.3087,-5.3227,-5.3175,-5.317,-5.3251,-5.3252,-5.3252,-5.314,-5.3136,-5.3131,-5.3126,-5.3151,-5.3156,-5.3161,-5.3294,0,0,-5.3178,-5.3181,0,0,0,0,0,0,0,0,-5.3127,-5.3135,-5.3182,-5.3179,-5.3174,-5.3187,-5.3209,-5.3266,-5.3142,-5.3152,-5.3129,-5.3124,-5.3168,-5.3172,-5.3187,-5.3295,-5.3296,-5.3179,-5.3182,-5.3185,-5.3186,0,0,0,0,0,0,0,-5.3124,-5.3134,-5.3237,-5.3183,-5.3178,-5.3149,-5.3151,-5.3219,-5.3187,-5.3151,-5.3142,-5.3147,-5.3165,-5.3182,-5.3187,-5.3296,-5.3179,-5.3184,-5.3187,-5.3189,-5.3509,-5.3514,0,0,0,0,0,0,-5.3128,-5.3132,-5.3236,-5.3237,-5.3138,-5.3156,-5.3157,-5.3188,-5.3186,-5.3181,-5.3151,-5.3141,-5.3175,-5.3181,-5.3188,-5.3338,-5.3184,-5.319,-5.3193,-5.3504,-5.351,-5.3516,0,0,0,0,0,0,-5.3125,-5.3138,-5.3235,-5.3182,-5.3192,-5.3164,-5.3199,-5.3191,-5.3208,-5.3187,-5.318,-5.3174,-5.3172,-5.318,-5.3267,-5.3338,-5.3192,-5.3197,-5.3498,-5.3506,-5.3513,-5.3644,0,0,0,0,0,0,-5.3122,-5.3138,-5.3189,-5.3184,-5.3196,-5.3315,-5.3203,-5.3195,-5.3218,-5.3205,-5.3207,-5.3202,-5.3168,-5.326,-5.3273,-5.3343,-5.3201,-5.3491,-5.3502,-5.3511,-5.3633,-5.3655,-5.3674,0,0,0,0,0,-5.3117,-5.3225,-5.3192,-5.3205,-5.3258,-5.332,-5.3326,-5.3285,-5.3224,-5.3274,-5.326,-5.3202,-5.3329,-5.327,-5.3283,-5.3356,-5.3487,-5.3499,-5.351,-5.3624,-5.3651,-5.3674,0,0,0,0,0,0,-5.3239,-5.3224,-5.3186,-5.3297,-5.331,-5.33,-5.3362,-5.3315,-5.3346,-5.3333,-5.3281,-5.3282,-5.3378,-5.3376,-5.331,-5.3482,-5.3397,-5.3412,-5.3479,-5.3504,-5.3525,-5.3521,-5.3206,0,0,0,0,0,-5.3279,-5.333,-5.3314,-5.3413,-5.3422,-5.3391,-5.3417,-5.3384,-5.3395,-5.34,-5.3393,-5.3406,-5.3448,-5.3477,-5.3515,-5.3634,-5.363,-5.3691,-5.3711,-5.3728,-5.374,-5.3799,-5.3824,-5.3554,-5.3554,-5.3554,0,0,-5.3362,-5.336,-5.3395,-5.3438,-5.3444,-5.3497,-5.3397,-5.3458,-5.3496,-5.3409,-5.349,-5.3486,-5.3497,-5.3599,-5.3644,-5.3601,-5.3815,-5.3743,-5.3757,-5.376,-5.3814,-5.3839,-5.3862,-5.3562,-5.3561,-5.356,0,0,-5.3538,-5.3544,-5.3624,-5.3633,-5.3643,-5.3622,-5.3642,-5.3639,-5.3632,-5.3713,-5.3648,-5.3693,-5.3768,-5.3777,-5.3792,-5.3971,-5.3918,-5.3985,-5.4091,-5.4149,-5.417,-5.4188,-5.4248,-5.427,-5.3998,-5.3999,-5.3999,0,-5.3639,-5.3716,-5.3672,-5.3736,-5.3755,-5.368,-5.376,-5.377,-5.3794,-5.3808,-5.376,-5.385,-5.3853,-5.3954,-5.3998,-5.4014,-5.4032,-5.3982,-5.417,-5.4189,-5.4205,-5.4261,-5.4284,-5.4006,-5.4006,-5.4005,-5.4004,0,-5.3837,-5.3892,-5.3956,-5.3979,-5.4006,-5.4078,-5.4043,-5.4076,-5.4041,-5.4025,-5.4106,-5.4107,-5.4142,-5.4165,-5.4132,-5.4262,-5.4234,-5.418,-5.4092,-5.4239,-5.4291,-5.4312,-5.4017,-5.4015,-5.4012,-5.401,0,0,-5.4089,-5.4086,-5.411,-5.4117,-5.4124,-5.4164,-5.4233,-5.4267,-5.4294,-5.4313,-5.4367,-5.4432,-5.438,-5.4397,-5.4365,-5.4417,-5.4553,-5.4355,-5.4354,-5.4388,-5.4691,-5.4728,-5.4754,-5.452,-5.4524,-5.4527,-5.4688,0,-5.4258,-5.4373,-5.4335,-5.4451,-5.4499,-5.4428,-5.4487,-5.4497,-5.4484,-5.4522,-5.4507,-5.4552,-5.4484,-5.4493,-5.4541,-5.4526,-5.4612,-5.4515,-5.4566,-5.4569,-5.4561,-5.4782,-5.4822,-5.4974,-5.4709,-5.4712,-5.4715,0,-5.447,-5.4495,-5.4616,-5.4611,-5.463,-5.4684,-5.471,-5.4749,-5.4758,-5.4744,-5.4763,-5.4719,-5.4784,-5.47,-5.4787,-5.4722,-5.4741,-5.4737,-5.4742,-5.4742,-5.4647,-5.4783,-5.5022,-5.5043,-5.4747,-5.4744,-5.4742,0,-5.4635,-5.4701,-5.478,-5.479,-5.4788,-5.4826,-5.4827,-5.4831,-5.4853,-5.4877,-5.489,-5.4922,-5.4938,-5.4963,-5.4929,-5.4872,-5.502,-5.4934,-5.5008,-5.5009,-5.5039,-5.5036,-5.528,-5.506,-5.5059,-5.5059,-5.5058,0,-5.4825,-5.4901,-5.4854,-5.4902,-5.4984,-5.494,-5.5022,-5.5015,-5.5019,-5.5064,-5.5007,-5.505,-5.5004,-5.5043,-5.5017,-5.5091,-5.51,-5.5089,-5.508,-5.5092,-5.5093,-5.51,-5.5087,-5.5065,-5.5063,-5.5062,-5.5061,0,-5.5022,-5.4994,-5.5075,-5.5066,-5.5066,-5.5126,-5.5118,-5.5161,-5.5144,-5.5202,-5.5213,-5.5186,-5.5228,-5.5198,-5.5241,-5.5223,-5.5319,-5.5298,-5.5315,-5.5307,-5.5381,-5.5373,-5.5634,-5.5665,-5.543,-5.5432,-5.5434,0,-5.5143,-5.5199,-5.5195,-5.5221,-5.5225,-5.5268,-5.5289,-5.5248,-5.5272,-5.5286,-5.5328,-5.5365,-5.5392,-5.5464,-5.5447,-5.5479,-5.5456,-5.5545,-5.546,-5.5468,-5.5451,-5.5447,-5.545,-5.5561,-5.5564,-5.5566,-5.5568,0,-5.5358,-5.5341,-5.5374,-5.5402,-5.5429,-5.545,-5.5466,-5.549,-5.5448,-5.5479,-5.5521,-5.5542,-5.5585,-5.5622,-5.5648,-5.5648,-5.56,-5.5596,-5.5613,-5.5623,-5.5629,-5.5622,-5.5357,-5.5589,-5.5587,-5.5585,-5.5584,-5.5583,-5.5517,-5.5562,-5.5566,-5.5604,-5.5611,-5.5627,-5.5666,-5.5654,-5.5688,-5.5719,-5.5693,-5.5743,-5.5748,-5.5778,-5.5784,-5.5821,-5.5784,-5.5812,-5.5818,-5.5824,-5.5832,-5.5627,-5.5827,-5.5826,-5.5825,-5.5825,-5.5824,0,-5.5725,-5.5724,-5.576,-5.5782,-5.5812,-5.5766,-5.5781,-5.5808,-5.5852,-5.5862,-5.5889,-5.5937,-5.5972,-5.5959,-5.599,-5.6022,-5.6001,-5.6031,-5.6026,-5.6026,-5.5866,-5.5845,-5.6047,-5.6047,-5.6047,-5.6047,-5.6047,-5.6047,-5.5837,-5.5909,-5.5893,-5.5967,-5.5965,-5.6013,-5.6024,-5.6038,-5.6044,-5.61,-5.6128,-5.6119,-5.6119,-5.6149,-5.6179,-5.6174,-5.6186,-5.6223,-5.621,-5.606,-5.6038,-5.6017,-5.5996,-5.6228,-5.6228,-5.6367,-5.6368,-5.6369]},{"header":{"parameterUnit":"m.s-1","parameterCategory":1,"la1":30.2991,"la2":30.254,"lo1":-89.0895,"lo2":-89.0444,"dy":0.0017,"dx":0.0017,"nx":28,"ny":28,"refTime":"2024-06-17T09:00:00:Z","depth":0,"parameterNumber":3,"parameterNumberName":"V-component_of_WINDS"},"data":[0,0,0,0,0,0,0,0,0,0,0,0,0,0,0,0,0,0,0,0,0,0,0,0,0,0,0,0,0,0,0,0,0,0,0,0,0,0,0,0,0,0,0,0,0,0,0,0,0,0,0,0,0,0,0,0,0,0,2.0533,2.0534,0,2.0607,2.0607,2.0608,2.0561,2.0559,2.0557,2.0554,2.0627,2.0631,2.0635,0,0,0,0,0,0,0,0,0,0,0,0,0,2.0351,2.0355,2.0533,2.0534,2.0535,2.0607,2.0608,2.0609,2.0561,2.0559,2.0556,2.0553,2.0626,2.063,2.0635,0,0,0,0,0,0,0,0,0,0,0,0,0,2.0428,2.0356,2.0533,2.052,2.052,2.0606,2.0608,2.0609,2.0562,2.0559,2.0555,2.0552,2.0624,2.063,2.0636,2.0738,0,0,2.0654,2.0657,0,0,0,0,0,0,0,0,2.0424,2.0435,2.0521,2.0521,2.0521,2.0571,2.057,2.0652,2.0563,2.0546,2.0554,2.0551,2.0611,2.0618,2.0639,2.0742,2.0745,2.0654,2.0658,2.0661,2.0662,0,0,0,0,0,0,0,2.0418,2.0431,2.0562,2.0523,2.0522,2.051,2.0518,2.0585,2.0596,2.0547,2.0544,2.0553,2.061,2.0633,2.064,2.0746,2.0654,2.066,2.0663,2.0666,2.0937,2.0941,0,0,0,0,0,0,2.0414,2.0427,2.056,2.0564,2.0463,2.0516,2.0525,2.0558,2.0595,2.0597,2.0556,2.0551,2.0624,2.0633,2.0642,2.0765,2.0661,2.0666,2.067,2.0934,2.0938,2.0942,0,0,0,0,0,0,2.0411,2.0427,2.0557,2.0495,2.0511,2.0523,2.0562,2.0562,2.0584,2.0602,2.0603,2.0577,2.0622,2.0634,2.0715,2.0767,2.0669,2.0674,2.093,2.0935,2.094,2.1011,0,0,0,0,0,0,2.0406,2.0426,2.0465,2.0496,2.0514,2.0629,2.0565,2.0565,2.0595,2.0589,2.0622,2.0625,2.0621,2.0706,2.0721,2.0773,2.0679,2.0925,2.0932,2.0938,2.1004,2.1018,2.103,0,0,0,0,0,2.0399,2.0481,2.0467,2.0483,2.0564,2.0632,2.0642,2.0637,2.0599,2.0639,2.065,2.0623,2.0759,2.0715,2.0731,2.0786,2.0922,2.093,2.0938,2.0998,2.1015,2.103,0,0,0,0,0,0,2.0454,2.0485,2.047,2.0564,2.0596,2.0624,2.0673,2.0655,2.0697,2.069,2.068,2.0688,2.0773,2.0788,2.0738,2.0887,2.0834,2.0846,2.0874,2.0891,2.0904,2.0898,2.0684,0,0,0,0,0,2.0477,2.0531,2.0555,2.0635,2.0653,2.0661,2.069,2.0683,2.0716,2.0728,2.0746,2.0778,2.0827,2.086,2.0907,2.1006,2.1013,2.1052,2.1065,2.1076,2.1085,2.114,2.1157,2.0969,2.0969,2.0969,0,0,2.0525,2.0548,2.0582,2.0647,2.0671,2.0726,2.0672,2.0732,2.0773,2.0737,2.0815,2.0829,2.0864,2.0955,2.0996,2.097,2.1139,2.1086,2.1095,2.1098,2.115,2.1168,2.1183,2.0975,2.0974,2.0973,0,0,2.064,2.0664,2.0734,2.076,2.0797,2.0802,2.082,2.0851,2.0859,2.0938,2.0912,2.0961,2.1047,2.1073,2.1097,2.1226,2.1203,2.1242,2.1309,2.1362,2.1377,2.139,2.1435,2.1452,2.1252,2.1252,2.1252,0,2.0694,2.0777,2.0772,2.0835,2.0864,2.0836,2.0907,2.0932,2.0983,2.1004,2.0974,2.1083,2.1104,2.1201,2.1233,2.1254,2.1272,2.1237,2.1375,2.1388,2.14,2.1444,2.1461,2.1256,2.1256,2.1255,2.1255,0,2.0842,2.09,2.0953,2.1004,2.1039,2.1106,2.111,2.1147,2.1138,2.1146,2.1227,2.1252,2.1304,2.1327,2.1318,2.1423,2.1406,2.1376,2.1323,2.1423,2.1463,2.148,2.1262,2.1261,2.1259,2.1258,0,0,2.0991,2.104,2.1059,2.1083,2.1124,2.1168,2.1234,2.1286,2.1317,2.1354,2.1409,2.1484,2.1457,2.1485,2.1479,2.1526,2.1626,2.1491,2.1491,2.1514,2.1743,2.1765,2.1784,2.1612,2.1615,2.1618,2.174,0,2.1108,2.1224,2.1222,2.1329,2.1383,2.1359,2.1416,2.1447,2.1458,2.1504,2.1515,2.1568,2.1529,2.1546,2.1592,2.1604,2.1672,2.1596,2.1662,2.1665,2.1653,2.1805,2.1827,2.1941,2.1756,2.1759,2.1761,0,2.1259,2.1303,2.1416,2.145,2.1472,2.1524,2.1572,2.1618,2.1653,2.1657,2.169,2.1678,2.1745,2.1691,2.1783,2.1731,2.1759,2.177,2.1774,2.1778,2.1718,2.1813,2.1978,2.1995,2.1786,2.1784,2.1782,0,2.1356,2.1443,2.1521,2.1542,2.1584,2.1621,2.1641,2.1673,2.1705,2.1747,2.1767,2.1817,2.1843,2.1882,2.1883,2.1844,2.1976,2.1922,2.1981,2.1981,2.2008,2.2006,2.2179,2.2029,2.2028,2.2028,2.2028,0,2.1486,2.1556,2.1566,2.1614,2.1692,2.169,2.1767,2.1782,2.1812,2.1863,2.1845,2.1893,2.1892,2.1941,2.1943,2.2019,2.2031,2.2036,2.2035,2.2037,2.2036,2.2054,2.2045,2.2033,2.2032,2.2031,2.203,0,2.1606,2.1615,2.17,2.1734,2.1744,2.18,2.1828,2.1875,2.1884,2.1949,2.1964,2.1979,2.2036,2.2042,2.2108,2.2109,2.2201,2.2192,2.2189,2.2187,2.2245,2.2239,2.2434,2.2459,2.2293,2.2295,2.2296,0,2.1687,2.1741,2.1781,2.1815,2.1837,2.189,2.1923,2.1924,2.1959,2.2005,2.2045,2.2101,2.2145,2.2237,2.2254,2.2304,2.2296,2.2361,2.2303,2.2304,2.2296,2.2293,2.2298,2.2371,2.2373,2.2375,2.2376,0,2.1831,2.1834,2.1883,2.1934,2.1974,2.2014,2.2052,2.208,2.2085,2.2126,2.2185,2.2219,2.2288,2.2343,2.2393,2.2412,2.2395,2.2395,2.2411,2.2412,2.2408,2.241,2.2218,2.2389,2.2388,2.2387,2.2386,2.2386,2.1934,2.1981,2.2017,2.2072,2.2101,2.2137,2.2182,2.2199,2.2248,2.2304,2.2302,2.2367,2.2402,2.2468,2.2491,2.2542,2.252,2.2544,2.2549,2.2555,2.2561,2.2401,2.2551,2.2551,2.255,2.255,2.255,0,2.2076,2.2099,2.215,2.2204,2.2248,2.223,2.2271,2.2309,2.2366,2.2401,2.2446,2.2514,2.2568,2.259,2.2643,2.2679,2.2673,2.2693,2.269,2.2694,2.2577,2.2558,2.2697,2.2697,2.2697,2.2697,2.2697,2.2697,2.2155,2.2233,2.2241,2.2334,2.2356,2.242,2.2445,2.2478,2.2506,2.2583,2.2629,2.2643,2.2673,2.2729,2.2778,2.2783,2.2803,2.2826,2.2828,2.2717,2.2702,2.2688,2.267,2.2831,2.2831,2.2941,2.2942,2.2942]}]]